Location: Cactus School
(34.5700°N, 118.0931°W)
Time: 22:19:30
(UTC-07:00)

Vanguard 2 - Pass Details

Date: 02 May 2024
Orbit: 553 x 2914 km, 32.9° (Epoch: 18 May)

Event Time Altitude Azimuth Distance (km) Brightness Sun altitude
Rises 20:42:14 0° 204° (SSW) 3,298 10.7 -12.7°
Reaches altitude 10° 20:44:52 10° 188° (S) 2,615 10.0 -13.2°
Maximum altitude 20:49:45 23° 138° (SE) 2,287 9.4 -14.1°
Enters shadow 20:53:26 18° 105° (ESE) 2,954 9.9 -14.7°
